This is the latest recevied weather packets stored in our database for station/object ALAKES. If no packets are shown the sender has not sent any weather packets the latest 10 day(s).
| Time | Temp. | Humidity | Pressure | Rain* | Wind** | Luminosity | Snow |
|---|---|---|---|---|---|---|---|
| 1787973674 | 10° C | 63% | - | 0 mm | - | - | - |
| 1787973055 | 10° C | 65% | - | 0 mm | - | - | - |
| 1787972427 | 9.44° C | 65% | - | 0 mm | - | - | - |
| 1787971850 | 9.44° C | 65% | - | 0 mm | - | - | - |
| 1787971801 | 9.44° C | 65% | - | 0 mm | - | - | - |
| 1787971181 | 10° C | 64% | - | 0 mm | - | - | - |
| 1787970675 | 10.56° C | 61% | - | 0 mm | - | - | - |
| 1787970557 | 10.56° C | 61% | - | 0 mm | - | - | - |
| 1787969923 | 11.11° C | 60% | - | 0 mm | - | - | - |
| 1787969306 | 11.67° C | 58% | - | 0 mm | - | - | - |
| 1787968680 | 12.22° C | 56% | - | 0 mm | - | - | - |
| 1787968090 | 12.22° C | 56% | - | 0 mm | - | - | - |
| 1787968058 | 12.22° C | 56% | - | 0 mm | - | - | - |
| 1787967512 | 12.22° C | 54% | - | 0 mm | - | - | - |
| 1787967432 | 12.22° C | 54% | - | 0 mm | - | - | - |
| 1787966809 | 12.78° C | 53% | - | 0 mm | - | - | - |
| 1787966167 | 13.33° C | 51% | - | 0 mm | - | - | - |
| 1787965545 | 13.33° C | 48% | - | 0 mm | - | - | - |
| 1787964921 | 12.78° C | 51% | - | 0 mm | - | - | - |
| 1787964293 | 13.33° C | 51% | - | 0 mm | - | - | - |
| 1787963709 | 12.78° C | 52% | - | 0 mm | - | - | - |
| 1787963670 | 12.78° C | 52% | - | 0 mm | - | - | - |
| 1787963044 | 12.78° C | 46% | - | 0 mm | - | - | - |
| 1787962406 | 12.78° C | 46% | - | 0 mm | - | - | - |
| 1787961770 | 12.78° C | - | 0 hPa | - | - | - | - |
* Rain latest 24 hours (hover to see other rain measurements)
** Current wind speed in m/s (hover to see current wind gust speed)